Location: Hat Ranch Observatory
(35.4668°N, 106.0752°W)
Time: 18:14:26
(UTC-07:00)

Tiangong - Visible Passes

Search period start: 20 January 2022 00:00
Search period end: 30 January 2022 00:00
Orbit: 383 x 386 km, 41.5° (Epoch: 20 January)

Date Brightness Start Highest point End Pass type
(mag) Time Alt. Az. Time Alt. Az. Time Alt. Az.
24 Jan 2.7 18:49:11 10° SSW 18:51:24 22° SSE 18:51:24 22° SSE visible
25 Jan 3.5 17:50:54 10° SSE 17:52:10 12° SE 17:53:27 10° ESE visible
25 Jan 3.2 19:25:28 10° WSW 19:27:01 26° WSW 19:27:01 26° WSW visible
26 Jan 1.7 18:25:54 10° SW 18:28:54 42° SSE 18:30:20 25° E visible
27 Jan 1.4 19:02:47 10° W 19:05:46 57° NNW 19:05:46 57° NNW visible
28 Jan 1.0 18:02:54 10° WSW 18:06:03 83° SSE 18:08:55 12° ENE visible
28 Jan 4.0 19:40:15 10° WNW 19:41:08 16° WNW 19:41:08 16° WNW visible
29 Jan 2.0 18:40:07 10° W 18:43:06 38° NNW 18:44:13 27° NNE visible
